[[{"header":{"parameterUnit":"m.s-1","parameterCategory":1,"la1":30.2991,"la2":30.254,"lo1":-89.0895,"lo2":-89.0444,"dy":0.0017,"dx":0.0017,"nx":28,"ny":28,"refTime":"2024-08-27T21:00:00:Z","depth":0,"parameterNumber":2,"parameterNumberName":"U-component_of_WINDS"},"data":[0,0,0,0,0,0,0,0,0,0,0,0,0,0,0,0,0,0,0,0,0,0,0,0,0,0,0,0,0,0,0,0,0,0,0,0,0,0,0,0,0,0,0,0,0,0,0,0,0,0,0,0,0,0,0,0,0,0,-2.3632,-2.3632,0,-2.3678,-2.3678,-2.3679,-2.3643,-2.3641,-2.364,-2.3638,-2.3687,-2.3689,-2.3692,0,0,0,0,0,0,0,0,0,0,0,0,0,-2.3515,-2.3517,-2.3632,-2.3632,-2.3633,-2.3678,-2.3678,-2.3679,-2.3643,-2.3641,-2.3639,-2.3638,-2.3686,-2.3689,-2.3692,0,0,0,0,0,0,0,0,0,0,0,0,0,-2.3564,-2.3518,-2.3632,-2.362,-2.362,-2.3678,-2.3678,-2.3679,-2.3644,-2.3641,-2.3639,-2.3637,-2.3685,-2.3689,-2.3693,-2.3764,0,0,-2.3705,-2.3707,0,0,0,0,0,0,0,0,-2.3561,-2.3568,-2.3621,-2.3621,-2.3621,-2.3652,-2.3655,-2.3708,-2.3644,-2.3635,-2.3638,-2.3636,-2.3677,-2.3682,-2.3695,-2.3767,-2.3769,-2.3706,-2.3708,-2.371,-2.3711,0,0,0,0,0,0,0,-2.3558,-2.3566,-2.365,-2.3622,-2.3622,-2.3614,-2.3618,-2.3665,-2.3668,-2.3635,-2.3633,-2.3639,-2.3677,-2.3692,-2.3696,-2.3769,-2.3705,-2.3709,-2.3712,-2.3713,-2.3903,-2.3905,0,0,0,0,0,0,-2.3555,-2.3563,-2.3649,-2.3651,-2.3584,-2.3618,-2.3623,-2.3644,-2.3668,-2.3669,-2.3641,-2.3637,-2.3686,-2.3692,-2.3698,-2.3784,-2.371,-2.3714,-2.3716,-2.39,-2.3903,-2.3906,0,0,0,0,0,0,-2.3553,-2.3563,-2.3647,-2.3607,-2.3617,-2.3622,-2.3647,-2.3647,-2.3662,-2.3672,-2.3672,-2.3655,-2.3684,-2.3692,-2.3748,-2.3785,-2.3715,-2.3719,-2.3897,-2.3901,-2.3905,-2.3956,0,0,0,0,0,0,-2.355,-2.3562,-2.3589,-2.3608,-2.3619,-2.3696,-2.3649,-2.3649,-2.3669,-2.3664,-2.3686,-2.3687,-2.3683,-2.3742,-2.3752,-2.3789,-2.3722,-2.3894,-2.3899,-2.3903,-2.3951,-2.3961,-2.3969,0,0,0,0,0,-2.3545,-2.3602,-2.3591,-2.3601,-2.3652,-2.3698,-2.3705,-2.3698,-2.3672,-2.3699,-2.3706,-2.3686,-2.3779,-2.3748,-2.3759,-2.3798,-2.3892,-2.3897,-2.3903,-2.3946,-2.3959,-2.3969,0,0,0,0,0,0,-2.3588,-2.3604,-2.3592,-2.3656,-2.3676,-2.3692,-2.3726,-2.3712,-2.374,-2.3734,-2.3726,-2.3731,-2.379,-2.38,-2.3765,-2.3869,-2.3831,-2.384,-2.386,-2.3872,-2.3881,-2.3878,-2.3726,0,0,0,0,0,-2.3604,-2.3639,-2.3652,-2.3707,-2.3718,-2.372,-2.374,-2.3734,-2.3754,-2.3762,-2.3773,-2.3794,-2.3828,-2.3851,-2.3883,-2.3952,-2.3957,-2.3984,-2.3994,-2.4001,-2.4008,-2.4046,-2.4059,-2.3925,-2.3925,-2.3925,0,0,-2.3639,-2.3653,-2.3675,-2.3716,-2.3731,-2.3768,-2.3728,-2.3768,-2.3796,-2.3769,-2.3822,-2.3831,-2.3854,-2.3917,-2.3946,-2.3927,-2.4046,-2.4009,-2.4015,-2.4018,-2.4054,-2.4066,-2.4077,-2.3929,-2.3928,-2.3928,0,0,-2.3722,-2.3735,-2.3783,-2.3799,-2.3821,-2.3823,-2.3834,-2.3853,-2.3858,-2.3911,-2.3892,-2.3925,-2.3984,-2.4001,-2.4018,-2.4108,-2.4092,-2.4119,-2.4167,-2.4205,-2.4215,-2.4224,-2.4257,-2.4269,-2.4126,-2.4126,-2.4126,0,-2.3762,-2.3817,-2.3809,-2.3851,-2.387,-2.3847,-2.3896,-2.3912,-2.3944,-2.3958,-2.3937,-2.401,-2.4024,-2.4092,-2.4114,-2.4128,-2.4141,-2.4116,-2.4214,-2.4223,-2.4232,-2.4263,-2.4275,-2.4129,-2.4129,-2.4129,-2.4128,0,-2.3866,-2.3904,-2.394,-2.3971,-2.3994,-2.4039,-2.4039,-2.4064,-2.4056,-2.406,-2.4115,-2.4132,-2.4166,-2.4182,-2.4175,-2.4249,-2.4237,-2.4215,-2.4177,-2.4248,-2.4277,-2.4289,-2.4134,-2.4133,-2.4132,-2.4131,0,0,-2.3975,-2.4002,-2.4016,-2.403,-2.4054,-2.4084,-2.4128,-2.4162,-2.4184,-2.4207,-2.4245,-2.4296,-2.4276,-2.4295,-2.429,-2.4322,-2.4394,-2.4297,-2.4297,-2.4314,-2.4476,-2.4492,-2.4506,-2.4383,-2.4385,-2.4387,-2.4474,0,-2.4058,-2.4135,-2.413,-2.4203,-2.4239,-2.4218,-2.4257,-2.4277,-2.4282,-2.4314,-2.432,-2.4356,-2.4327,-2.4339,-2.437,-2.4378,-2.4426,-2.4372,-2.4418,-2.442,-2.4413,-2.4521,-2.4538,-2.4619,-2.4486,-2.4488,-2.4489,0,-2.4166,-2.4193,-2.4269,-2.4288,-2.4303,-2.4338,-2.4369,-2.44,-2.4422,-2.4423,-2.4445,-2.4435,-2.4481,-2.4442,-2.4506,-2.4469,-2.4488,-2.4495,-2.4498,-2.4502,-2.4458,-2.4528,-2.4645,-2.4658,-2.4507,-2.4505,-2.4504,0,-2.4238,-2.4293,-2.4346,-2.4359,-2.4383,-2.4408,-2.442,-2.4439,-2.446,-2.4488,-2.4502,-2.4535,-2.4553,-2.4579,-2.4578,-2.455,-2.4643,-2.4604,-2.4646,-2.4646,-2.4666,-2.4665,-2.4788,-2.4679,-2.4679,-2.4678,-2.4678,0,-2.4331,-2.4379,-2.4379,-2.4412,-2.4465,-2.4459,-2.4512,-2.452,-2.4539,-2.4573,-2.4558,-2.4591,-2.4587,-2.4621,-2.4621,-2.4674,-2.4682,-2.4685,-2.4685,-2.4687,-2.4686,-2.4699,-2.4693,-2.4682,-2.4681,-2.468,-2.468,0,-2.4421,-2.4423,-2.4479,-2.4497,-2.4503,-2.4541,-2.4557,-2.4588,-2.4593,-2.4636,-2.4647,-2.4654,-2.4692,-2.4694,-2.4739,-2.4739,-2.4804,-2.4797,-2.4796,-2.4795,-2.4837,-2.4833,-2.4972,-2.499,-2.4869,-2.487,-2.4871,0,-2.448,-2.4516,-2.4538,-2.456,-2.4572,-2.4608,-2.4629,-2.4626,-2.4649,-2.4677,-2.4705,-2.4742,-2.4772,-2.4835,-2.4844,-2.4879,-2.4873,-2.4919,-2.4878,-2.4879,-2.4874,-2.4871,-2.4875,-2.4927,-2.4929,-2.493,-2.4931,0,-2.4585,-2.4585,-2.4616,-2.4647,-2.4673,-2.4698,-2.4722,-2.474,-2.474,-2.4767,-2.4806,-2.4829,-2.4874,-2.4912,-2.4946,-2.4958,-2.4945,-2.4944,-2.4955,-2.4957,-2.4955,-2.4957,-2.4818,-2.494,-2.4939,-2.4939,-2.4938,-2.4938,-2.4661,-2.4693,-2.4713,-2.4749,-2.4766,-2.4788,-2.4818,-2.4826,-2.4859,-2.4895,-2.4892,-2.4935,-2.4958,-2.5001,-2.5017,-2.5051,-2.5036,-2.5052,-2.5056,-2.5061,-2.5065,-2.495,-2.5058,-2.5057,-2.5057,-2.5057,-2.5057,0,-2.4766,-2.4778,-2.4811,-2.4844,-2.4872,-2.4856,-2.4882,-2.4906,-2.4945,-2.4966,-2.4996,-2.5041,-2.5078,-2.5091,-2.5126,-2.5152,-2.5147,-2.5161,-2.5159,-2.5163,-2.5077,-2.5064,-2.5165,-2.5165,-2.5165,-2.5165,-2.5165,-2.5165,-2.4824,-2.4876,-2.4878,-2.4939,-2.4951,-2.4993,-2.5009,-2.503,-2.5047,-2.5098,-2.5128,-2.5136,-2.5155,-2.5192,-2.5225,-2.5228,-2.5242,-2.5259,-2.526,-2.5179,-2.5168,-2.5158,-2.5145,-2.5262,-2.5262,-2.5342,-2.5343,-2.5343]},{"header":{"parameterUnit":"m.s-1","parameterCategory":1,"la1":30.2991,"la2":30.254,"lo1":-89.0895,"lo2":-89.0444,"dy":0.0017,"dx":0.0017,"nx":28,"ny":28,"refTime":"2024-08-27T21:00:00:Z","depth":0,"parameterNumber":3,"parameterNumberName":"V-component_of_WINDS"},"data":[0,0,0,0,0,0,0,0,0,0,0,0,0,0,0,0,0,0,0,0,0,0,0,0,0,0,0,0,0,0,0,0,0,0,0,0,0,0,0,0,0,0,0,0,0,0,0,0,0,0,0,0,0,0,0,0,0,0,2.815,2.8151,0,2.8169,2.8169,2.817,2.8186,2.8186,2.8186,2.8187,2.8204,2.8204,2.8204,0,0,0,0,0,0,0,0,0,0,0,0,0,2.8127,2.8127,2.815,2.8151,2.8151,2.8169,2.8169,2.817,2.8186,2.8186,2.8187,2.8187,2.8204,2.8204,2.8204,0,0,0,0,0,0,0,0,0,0,0,0,0,2.8141,2.8127,2.815,2.8161,2.8162,2.8169,2.8169,2.817,2.8186,2.8186,2.8187,2.8187,2.8203,2.8204,2.8204,2.8201,0,0,2.8206,2.8206,0,0,0,0,0,0,0,0,2.814,2.8141,2.8159,2.8161,2.8162,2.8176,2.8167,2.818,2.8186,2.8177,2.8187,2.8187,2.8194,2.8195,2.8198,2.8202,2.8202,2.8206,2.8206,2.8206,2.8206,0,0,0,0,0,0,0,2.8139,2.8141,2.8158,2.816,2.8161,2.8165,2.8167,2.817,2.8183,2.8178,2.8179,2.8181,2.8195,2.8198,2.8199,2.8203,2.8206,2.8206,2.8206,2.8206,2.8205,2.8205,0,0,0,0,0,0,2.8136,2.814,2.8157,2.8158,2.8151,2.8165,2.8167,2.8171,2.8184,2.8186,2.8181,2.8182,2.8197,2.8198,2.8199,2.8196,2.8206,2.8206,2.8207,2.8205,2.8205,2.8205,0,0,0,0,0,0,2.8136,2.8138,2.8156,2.8149,2.8152,2.8165,2.8169,2.8171,2.8174,2.8186,2.8188,2.8181,2.8197,2.8199,2.8201,2.8197,2.8207,2.8207,2.8206,2.8205,2.8205,2.819,0,0,0,0,0,0,2.8135,2.8138,2.8137,2.8149,2.8152,2.8158,2.8169,2.8171,2.8175,2.8176,2.8187,2.8189,2.8197,2.82,2.8201,2.8198,2.8207,2.8206,2.8205,2.8205,2.8191,2.8189,2.8188,0,0,0,0,0,2.8134,2.8131,2.8137,2.8139,2.8152,2.8158,2.8159,2.817,2.8175,2.8174,2.8181,2.8189,2.8197,2.82,2.8201,2.8198,2.8206,2.8206,2.8205,2.8191,2.8189,2.8188,0,0,0,0,0,0,2.8117,2.8133,2.8139,2.814,2.8148,2.816,2.8159,2.8167,2.8172,2.8173,2.8185,2.8188,2.8188,2.8193,2.8196,2.8196,2.8203,2.8202,2.8192,2.819,2.8189,2.8187,2.8208,0,0,0,0,0,2.8113,2.8117,2.8131,2.8131,2.8134,2.8146,2.8149,2.8157,2.8164,2.8167,2.8175,2.8182,2.8186,2.8189,2.8193,2.8192,2.8194,2.819,2.8189,2.8187,2.8187,2.8186,2.8185,2.8203,2.8203,2.8203,0,0,2.8105,2.8115,2.8117,2.8127,2.8134,2.8137,2.8149,2.8152,2.8154,2.8167,2.817,2.8176,2.8184,2.8185,2.8185,2.8189,2.8182,2.8187,2.8185,2.8185,2.8186,2.8184,2.8182,2.8202,2.8202,2.8202,0,0,2.8093,2.8101,2.8102,2.8108,2.8118,2.8127,2.8127,2.8139,2.8144,2.8147,2.8157,2.816,2.8167,2.8173,2.8176,2.8167,2.8174,2.8168,2.816,2.8159,2.8158,2.8157,2.8153,2.8151,2.8168,2.8168,2.8168,0,2.8082,2.8088,2.8101,2.8103,2.8108,2.8121,2.8122,2.8127,2.8138,2.8141,2.8145,2.8155,2.8161,2.8163,2.8161,2.8164,2.8164,2.8167,2.8157,2.8156,2.8155,2.8152,2.815,2.8167,2.8167,2.8167,2.8167,0,2.8074,2.8078,2.8077,2.8089,2.8093,2.8095,2.8107,2.811,2.8117,2.8125,2.8127,2.8136,2.8143,2.8144,2.815,2.8147,2.8149,2.8155,2.8162,2.8152,2.8149,2.8148,2.8166,2.8166,2.8166,2.8166,0,0,2.805,2.8069,2.8068,2.8074,2.8087,2.809,2.8092,2.8099,2.8102,2.8109,2.8111,2.8117,2.8123,2.8127,2.8135,2.8135,2.8127,2.8141,2.8141,2.8137,2.8123,2.8117,2.8116,2.8132,2.8131,2.8131,2.8122,0,2.8039,2.8045,2.8056,2.8058,2.8062,2.8075,2.8077,2.8085,2.8092,2.8096,2.8104,2.8108,2.8116,2.8119,2.812,2.8127,2.8124,2.8128,2.8133,2.8133,2.8129,2.8114,2.8108,2.8099,2.8121,2.812,2.812,0,2.8027,2.8035,2.8037,2.805,2.8052,2.8054,2.8062,2.8066,2.8075,2.808,2.8085,2.8094,2.8097,2.8104,2.8108,2.8111,2.8113,2.8118,2.8117,2.8117,2.8125,2.8113,2.8096,2.8094,2.8119,2.8119,2.8119,0,2.8009,2.8019,2.8022,2.8027,2.8042,2.8043,2.8049,2.8059,2.8063,2.807,2.8072,2.8079,2.8082,2.8087,2.8097,2.8102,2.8099,2.8108,2.8103,2.8103,2.8101,2.8101,2.8084,2.8104,2.8104,2.8104,2.8104,0,2.7995,2.7996,2.8014,2.8016,2.8017,2.8031,2.8031,2.8039,2.8047,2.805,2.8062,2.8064,2.8078,2.8082,2.809,2.8091,2.8093,2.8097,2.8099,2.8095,2.8095,2.8097,2.8097,2.8104,2.8104,2.8104,2.8104,0,2.7974,2.7987,2.7991,2.8006,2.801,2.801,2.8022,2.8024,2.8033,2.8036,2.8038,2.8051,2.8056,2.8067,2.8075,2.808,2.808,2.8084,2.8077,2.8078,2.8073,2.8073,2.8055,2.8053,2.8075,2.8075,2.8075,0,2.7964,2.7965,2.7981,2.7984,2.7991,2.7996,2.8,2.8014,2.8017,2.8028,2.8029,2.8035,2.8041,2.8048,2.8058,2.8064,2.8068,2.8061,2.8069,2.8065,2.8067,2.8067,2.8067,2.8059,2.8059,2.8059,2.8059,0,2.7945,2.7952,2.7958,2.7967,2.7972,2.7979,2.7987,2.7989,2.8004,2.8008,2.8014,2.8018,2.8027,2.8033,2.8041,2.8047,2.8055,2.8057,2.8056,2.8052,2.8047,2.8049,2.8071,2.8057,2.8057,2.8057,2.8057,2.8057,2.7929,2.7931,2.7942,2.7949,2.7957,2.7964,2.7967,2.7976,2.7982,2.799,2.7998,2.8003,2.8013,2.8024,2.8029,2.8033,2.8037,2.8036,2.8036,2.8035,2.8033,2.8048,2.8035,2.8035,2.8035,2.8035,2.8035,0,2.791,2.7919,2.7925,2.7936,2.7941,2.795,2.796,2.7963,2.7968,2.7976,2.7982,2.7989,2.7995,2.8006,2.8013,2.8014,2.8017,2.8015,2.8014,2.8015,2.803,2.8029,2.8011,2.8011,2.8011,2.8011,2.8011,2.8011,2.7901,2.7904,2.7912,2.792,2.7928,2.7934,2.7938,2.7945,2.7952,2.7959,2.7965,2.7972,2.7982,2.7989,2.7995,2.7998,2.8,2.7995,2.7999,2.8012,2.8014,2.8017,2.8016,2.7996,2.7996,2.7985,2.7985,2.7985]}]]